CW5456 Hansville WA US current weather conditions

sailwx.info

Wind from 350 at 1 knots gusting 7

Air temperature 22.8° C
Dewpoint 16.1° C

Last reported at 2015-Jul-03 19:48 UTC.
Time now 2015-Jul-03 20:19 UTC

Location: N 47°55' W 122°35'.
View on Google Maps.

See reports from other nearby stations

  
Tides and Currents Weather Stations Pressure Air Temp Water Temp Dewpoint Dewpoint Depression Visibility Wind Speed Wind Dir Waves Ship Positions
date/time (UTC)wind fromknots sea level pressurealtimeterstation pressurevisibilityair tempwater tempwave heightnotes
2015-Jul-03 19:48 350 1 gusting 7 22.8
2015-Jul-03 19:43 349 2 gusting 3 22.8
2015-Jul-03 19:38 346 0 gusting 5 22.8
2015-Jul-03 19:33 344 3 gusting 5 22.2
2015-Jul-03 19:28 028 0 gusting 3 22.2
2015-Jul-03 19:23 020 1 gusting 3 22.2
2015-Jul-03 19:18 355 2 gusting 3 22.2
2015-Jul-03 19:13 355 2 gusting 3 22.2
2015-Jul-03 19:08 355 3 gusting 6 22.2
2015-Jul-03 19:03 350 3 gusting 6 22.2
2015-Jul-03 18:58 350 2 gusting 6 22.8
2015-Jul-03 18:53 343 3 gusting 6 22.2
2015-Jul-03 18:48 005 5 gusting 6 22.2
2015-Jul-03 18:43 350 2 gusting 3 22.2
2015-Jul-03 18:38 350 1 gusting 3 22.2
2015-Jul-03 18:33 355 2 gusting 5 22.2
2015-Jul-03 18:28 355 0 gusting 6 22.2
2015-Jul-03 18:23 338 1 gusting 6 22.2
2015-Jul-03 18:18 346 2 gusting 6 21.7
2015-Jul-03 18:13 346 1 gusting 6 21.7
2015-Jul-03 18:08 360 2 gusting 6 21.7
2015-Jul-03 18:03 348 2 gusting 5 21.1
2015-Jul-03 17:58 347 0 gusting 3 21.1
2015-Jul-03 17:53 346 0 gusting 3 21.1
2015-Jul-03 17:48 346 0 gusting 6 21.1
2015-Jul-03 17:43 345 1 gusting 6 21.1
2015-Jul-03 17:38 344 5 gusting 6 21.1
2015-Jul-03 17:33 338 3 gusting 7 21.1
2015-Jul-03 17:28 342 6 gusting 7 20.6
2015-Jul-03 17:23 346 3 gusting 6 20.6
2015-Jul-03 17:18 346 3 gusting 6 20.0
2015-Jul-03 17:13 344 1 gusting 6 19.4
2015-Jul-03 17:08 343 5 gusting 6 19.4
2015-Jul-03 17:03 005 3 gusting 6 18.9
2015-Jul-03 16:58 015 2 gusting 2 18.9
2015-Jul-03 16:53 015 0 gusting 2 18.9
2015-Jul-03 16:48 015 18.3
2015-Jul-03 16:43 015 0 gusting 2 18.3
2015-Jul-03 16:38 015 1 gusting 3 18.3
2015-Jul-03 16:33 015 18.3
2015-Jul-03 16:28 015 0 gusting 0 18.3
2015-Jul-03 16:23 015 18.3
2015-Jul-03 16:18 015 0 gusting 1 17.8
2015-Jul-03 16:13 015 17.8
2015-Jul-03 16:08 015 17.8
2015-Jul-03 16:03 015 18.3
2015-Jul-03 15:58 015 17.8
2015-Jul-03 15:53 015 0 gusting 3 18.3
2015-Jul-03 15:48 344 1 gusting 2 18.3
2015-Jul-03 15:43 344 19.4
2015-Jul-03 15:38 344 19.4
2015-Jul-03 15:33 344 0 gusting 2 19.4
2015-Jul-03 15:28 344 1 gusting 2 18.9
2015-Jul-03 15:23 344 2 gusting 2 18.3
2015-Jul-03 15:18 344 0 gusting 1 18.3
2015-Jul-03 15:13 344 1 gusting 1 18.9
2015-Jul-03 15:08 344 19.4
2015-Jul-03 15:03 344 19.4
2015-Jul-03 14:58 338 2 gusting 3 19.4
2015-Jul-03 14:53 215 0 gusting 1 18.9
2015-Jul-03 14:48 215 0 gusting 1 18.3
2015-Jul-03 14:43 206 17.8
2015-Jul-03 14:38 205 17.2
2015-Jul-03 14:33 205 0 gusting 2 17.2
2015-Jul-03 14:28 205 1 gusting 3 17.2
2015-Jul-03 14:23 205 2 gusting 3 16.7
2015-Jul-03 14:18 205 2 gusting 3 16.7
2015-Jul-03 14:13 205 2 gusting 3 16.1
2015-Jul-03 14:08 205 2 gusting 3 16.1
2015-Jul-03 14:03 205 2 gusting 3 16.1
2015-Jul-03 13:58 205 2 gusting 3 16.1
2015-Jul-03 13:53 205 3 gusting 5 16.1
2015-Jul-03 13:48 205 2 gusting 6 15.6
2015-Jul-03 13:43 205 3 gusting 6 15.6
2015-Jul-03 13:38 210 5 gusting 6 15.0
2015-Jul-03 13:33 202 3 gusting 3 15.0
2015-Jul-03 13:28 202 1 gusting 3 15.0
2015-Jul-03 13:23 202 2 gusting 3 15.0
2015-Jul-03 13:18 202 2 gusting 3 14.4
2015-Jul-03 13:13 202 1 gusting 3 14.4
2015-Jul-03 13:08 202 2 gusting 3 14.4
2015-Jul-03 13:03 202 1 gusting 2 14.4
2015-Jul-03 12:58 202 0 gusting 2 13.9
2015-Jul-03 12:53 202 0 gusting 2 13.9
2015-Jul-03 12:48 202 13.9
2015-Jul-03 12:43 202 0 gusting 2 13.9
2015-Jul-03 12:38 202 1 gusting 2 13.9
2015-Jul-03 12:33 202 1 gusting 2 13.9
2015-Jul-03 12:28 202 2 gusting 2 13.9
2015-Jul-03 12:23 202 1 gusting 2 13.9
2015-Jul-03 12:18 202 1 gusting 3 13.9
2015-Jul-03 12:13 202 2 gusting 3 13.9
2015-Jul-03 12:08 202 1 gusting 5 13.9
2015-Jul-03 12:03 202 2 gusting 5 13.9
2015-Jul-03 11:58 202 2 gusting 2 13.9
2015-Jul-03 11:53 202 1 gusting 2 13.9
2015-Jul-03 11:48 202 1 gusting 1 13.9
2015-Jul-03 11:43 202 13.9
2015-Jul-03 11:38 202 13.9
2015-Jul-03 11:33 202 13.9
2015-Jul-03 11:28 202 13.9
2015-Jul-03 11:23 202 13.9
2015-Jul-03 11:18 202 13.9
2015-Jul-03 11:13 202 13.9
2015-Jul-03 11:08 202 13.9
2015-Jul-03 11:03 202 13.9
2015-Jul-03 10:58 202 13.9
2015-Jul-03 10:53 202 1 gusting 2 13.9
2015-Jul-03 10:48 202 1 gusting 2 13.9
2015-Jul-03 10:43 202 2 gusting 2 13.9
2015-Jul-03 10:38 202 0 gusting 1 13.9
2015-Jul-03 10:33 202 13.9
2015-Jul-03 10:28 202 13.9
2015-Jul-03 10:23 202 1 gusting 3 13.9
2015-Jul-03 10:18 202 2 gusting 3 13.9
2015-Jul-03 10:13 202 2 gusting 3 14.4
2015-Jul-03 10:08 202 1 gusting 3 14.4
2015-Jul-03 10:03 202 2 gusting 6 14.4
2015-Jul-03 09:58 202 2 gusting 6 14.4
2015-Jul-03 09:53 203 5 gusting 6 14.4
2015-Jul-03 09:48 214 5 gusting 5 14.4
2015-Jul-03 09:43 215 2 gusting 5 14.4
2015-Jul-03 09:38 213 3 gusting 5 14.4
2015-Jul-03 09:33 298 2 gusting 3 14.4
2015-Jul-03 09:28 336 1 gusting 5 14.4
2015-Jul-03 09:23 336 15.0
2015-Jul-03 09:18 338 3 gusting 6 14.4
2015-Jul-03 09:13 355 14.4
2015-Jul-03 09:08 355 15.0
2015-Jul-03 09:03 348 5 gusting 6 15.0
2015-Jul-03 08:58 336 1 gusting 6 15.0
2015-Jul-03 08:53 331 3 gusting 6 15.0
2015-Jul-03 08:48 340 5 gusting 6 15.0
2015-Jul-03 08:43 339 15.0
2015-Jul-03 08:38 338 0 gusting 6 15.0
2015-Jul-03 08:33 332 1 gusting 6 15.0
2015-Jul-03 08:28 334 0 gusting 6 14.4
2015-Jul-03 08:23 360 14.4
2015-Jul-03 08:18 306 3 gusting 6 14.4
2015-Jul-03 08:13 340 14.4
2015-Jul-03 08:08 340 14.4
2015-Jul-03 08:03 302 0 gusting 2 15.0
2015-Jul-03 07:58 301 0 gusting 2 15.0
2015-Jul-03 07:53 300 1 gusting 1 15.0
2015-Jul-03 07:48 301 15.0
2015-Jul-03 07:43 292 15.0
2015-Jul-03 07:38 292 0 gusting 1 15.0
2015-Jul-03 07:33 292 15.0
2015-Jul-03 07:28 300 15.6
2015-Jul-03 07:23 319 15.6
2015-Jul-03 07:18 319 15.6
2015-Jul-03 07:13 319 15.6
2015-Jul-03 07:08 320 0 gusting 5 15.6
2015-Jul-03 07:03 320 16.1
2015-Jul-03 06:58 336 16.1
2015-Jul-03 06:53 349 16.1
2015-Jul-03 06:48 355 2 gusting 7 16.7
2015-Jul-03 06:43 005 2 gusting 9 16.7
2015-Jul-03 06:38 329 1 gusting 9 16.1
2015-Jul-03 06:33 338 5 gusting 6 16.7
2015-Jul-03 06:28 338 3 gusting 3 16.7
2015-Jul-03 06:23 338 16.7
2015-Jul-03 06:18 338 16.7
2015-Jul-03 06:13 338 1 gusting 2 16.7
2015-Jul-03 06:08 338 2 gusting 2 16.7
2015-Jul-03 06:03 338 1 gusting 2 17.2
2015-Jul-03 05:58 339 2 gusting 2 17.2
2015-Jul-03 05:53 342 1 gusting 2 17.2
2015-Jul-03 05:48 342 1 gusting 2 17.2
2015-Jul-03 05:43 342 1 gusting 2 17.8
2015-Jul-03 05:38 342 1 gusting 3 17.8
2015-Jul-03 05:33 342 17.8
2015-Jul-03 05:28 342 17.8
2015-Jul-03 05:23 342 6 gusting 9 17.8
2015-Jul-03 05:18 348 9 gusting 9 17.8
2015-Jul-03 05:13 333 7 gusting 9 17.2
2015-Jul-03 05:08 010 6 gusting 9 16.7
2015-Jul-03 05:03 348 5 gusting 6 16.1
2015-Jul-03 04:58 302 16.1
2015-Jul-03 04:53 302 0 gusting 6 16.1
2015-Jul-03 04:48 349 1 gusting 6 16.1
2015-Jul-03 04:43 309 2 gusting 6 16.1
2015-Jul-03 04:38 330 5 gusting 6 16.1
2015-Jul-03 04:33 332 1 gusting 8 16.1
2015-Jul-03 04:28 335 1 gusting 12 16.1
2015-Jul-03 04:23 333 5 gusting 12 16.7
2015-Jul-03 04:18 340 9 gusting 12 16.7
2015-Jul-03 04:13 340 7 gusting 12 17.2
2015-Jul-03 04:08 329 9 gusting 10 17.2
2015-Jul-03 04:03 303 0 gusting 6 17.8
2015-Jul-03 03:58 300 2 gusting 6 17.8
2015-Jul-03 03:53 313 18.3
2015-Jul-03 03:48 340 5 gusting 10 18.3
2015-Jul-03 03:43 338 7 gusting 10 18.3
2015-Jul-03 03:38 321 7 gusting 7 18.3
2015-Jul-03 03:33 304 1 gusting 7 18.3
2015-Jul-03 03:28 329 1 gusting 7 18.3
2015-Jul-03 03:23 342 0 gusting 7 18.3
2015-Jul-03 03:18 345 0 gusting 7 17.8
2015-Jul-03 03:13 030 2 gusting 8 17.8
2015-Jul-03 03:08 355 2 gusting 8 18.3
2015-Jul-03 03:03 309 7 gusting 9 18.3
2015-Jul-03 02:58 330 3 gusting 10 18.9
2015-Jul-03 02:53 309 3 gusting 10 19.4
2015-Jul-03 02:48 333 10 gusting 10 18.9
2015-Jul-03 02:43 331 1 gusting 9 18.9
2015-Jul-03 02:38 333 3 gusting 8 18.9
2015-Jul-03 02:33 329 0 gusting 8 18.9
2015-Jul-03 02:28 315 18.9
2015-Jul-03 02:23 327 18.9
2015-Jul-03 02:18 309 1 gusting 5 18.9
2015-Jul-03 02:13 355 18.9
2015-Jul-03 02:08 306 0 gusting 6 19.4
2015-Jul-03 02:03 315 2 gusting 6 19.4
2015-Jul-03 01:58 355 1 gusting 9 20.0
2015-Jul-03 01:53 317 2 gusting 9 20.6
2015-Jul-03 01:48 355 5 gusting 6 20.6
2015-Jul-03 01:43 296 2 gusting 6 21.1
2015-Jul-03 01:38 269 1 gusting 9 21.1
2015-Jul-03 01:33 348 3 gusting 10 21.1
2015-Jul-03 01:28 340 8 gusting 10 21.7
2015-Jul-03 01:23 340 8 gusting 8 22.2
2015-Jul-03 01:18 019 2 gusting 6 22.2
2015-Jul-03 01:13 350 3 gusting 6 22.2
2015-Jul-03 01:08 005 0 gusting 7 22.2
2015-Jul-03 01:03 327 5 gusting 7 22.8
2015-Jul-03 00:58 341 0 gusting 5 22.8
2015-Jul-03 00:53 350 0 gusting 5 22.8
2015-Jul-03 00:48 340 1 gusting 5 23.3
2015-Jul-03 00:43 360 1 gusting 3 23.9
2015-Jul-03 00:38 337 23.9
2015-Jul-03 00:33 337 1 gusting 6 23.9
2015-Jul-03 00:28 338 2 gusting 6 23.9
2015-Jul-03 00:23 005 2 gusting 3 23.3
2015-Jul-03 00:18 010 2 gusting 2 23.3
2015-Jul-03 00:13 011 0 gusting 3 23.3
2015-Jul-03 00:08 011 1 gusting 3 23.3
2015-Jul-03 00:03 019 2 gusting 2 22.8
2015-Jul-02 23:58 019 22.8
2015-Jul-02 23:53 019 0 gusting 3 22.8
2015-Jul-02 23:48 019 0 gusting 3 22.8
2015-Jul-02 23:43 019 2 gusting 2 23.3
2015-Jul-02 23:38 019 23.3
2015-Jul-02 23:33 019 23.3
2015-Jul-02 23:28 019 0 gusting 1 22.8
2015-Jul-02 23:23 019 22.8
2015-Jul-02 23:18 019 0 gusting 1 22.8
2015-Jul-02 23:13 019 22.2
2015-Jul-02 23:08 019 22.2
2015-Jul-02 23:03 019 1 gusting 3 22.2
2015-Jul-02 22:58 019 21.7
2015-Jul-02 22:53 019 1 gusting 5 21.7
2015-Jul-02 22:48 019 0 gusting 5 21.7
2015-Jul-02 22:43 360 1 gusting 6 21.7
2015-Jul-02 22:38 346 0 gusting 6 21.7
2015-Jul-02 22:33 011 6 gusting 6 21.7
2015-Jul-02 22:28 024 2 gusting 2 22.8
2015-Jul-02 22:23 024 1 gusting 2 22.8
2015-Jul-02 22:18 024 1 gusting 3 22.8
2015-Jul-02 22:13 023 0 gusting 3 22.8
2015-Jul-02 22:08 021 2 gusting 5 22.8
2015-Jul-02 22:03 056 3 gusting 5 22.8
2015-Jul-02 21:58 056 22.8
2015-Jul-02 21:53 051 0 gusting 3 22.2
2015-Jul-02 21:48 051 0 gusting 5 22.2
2015-Jul-02 21:43 051 2 gusting 5 22.2
2015-Jul-02 21:38 360 3 gusting 6 22.2
2015-Jul-02 21:33 322 2 gusting 8 21.7
2015-Jul-02 21:28 054 3 gusting 8 21.1
2015-Jul-02 21:23 060 21.1
2015-Jul-02 21:18 038 3 gusting 11 21.1
2015-Jul-02 21:13 322 6 gusting 9 21.1
2015-Jul-02 21:08 333 0 gusting 10 21.7
2015-Jul-02 21:03 337 8 gusting 10 21.7
2015-Jul-02 20:58 355 5 gusting 9 21.7
2015-Jul-02 20:53 340 5 gusting 8 21.1
2015-Jul-02 20:48 009 1 gusting 9 20.6
2015-Jul-02 20:43 349 6 gusting 11 20.6
2015-Jul-02 20:38 337 7 gusting 11 20.6
2015-Jul-02 20:33 342 9 gusting 11 20.6
2015-Jul-02 20:28 291 3 gusting 12 20.6
2015-Jul-02 20:23 351 3 gusting 12 20.6
2015-Jul-02 20:18 334 11 gusting 11 20.0
2015-Jul-02 20:13 333 7 gusting 11 20.0
2015-Jul-02 20:08 311 7 gusting 9 19.4
2015-Jul-02 20:03 332 7 gusting 8 19.4
2015-Jul-02 19:58 005 5 gusting 8 19.4
2015-Jul-02 19:53 355 6 gusting 8 19.4
2015-Jul-02 19:48 347 6 gusting 9 19.4
2015-Jul-02 19:43 360 6 gusting 9 19.4
2015-Jul-02 19:38 334 7 gusting 9 20.0
2015-Jul-02 19:33 009 5 gusting 10 20.0
2015-Jul-02 19:28 355 3 gusting 10 20.6
2015-Jul-02 19:23 355 10 gusting 10 20.6
2015-Jul-02 19:18 360 6 gusting 8 20.6
2015-Jul-02 19:13 346 3 gusting 8 20.0
2015-Jul-02 19:08 010 6 gusting 8 20.0
2015-Jul-02 19:03 350 2 gusting 9 20.6
2015-Jul-02 18:58 348 6 gusting 9 20.6
2015-Jul-02 18:53 315 2 gusting 6 21.1
2015-Jul-02 18:48 005 3 gusting 6 21.1
2015-Jul-02 18:43 344 3 gusting 6 21.1
2015-Jul-02 18:38 350 1 gusting 6 21.1
2015-Jul-02 18:33 010 3 gusting 6 21.1
2015-Jul-02 18:28 009 5 gusting 6 21.1
2015-Jul-02 18:23 017 3 gusting 6 21.7
2015-Jul-02 18:18 010 3 gusting 6 21.7
2015-Jul-02 18:13 360 2 gusting 6 22.2
2015-Jul-02 18:08 011 2 gusting 6 22.2
2015-Jul-02 18:03 023 2 gusting 6 22.2
2015-Jul-02 17:58 351 3 gusting 6 22.2
2015-Jul-02 17:53 348 5 gusting 6 21.7
2015-Jul-02 17:48 005 2 gusting 5 21.7
2015-Jul-02 17:43 342 0 gusting 5 21.1
2015-Jul-02 17:38 038 0 gusting 2 20.6
2015-Jul-02 17:33 039 0 gusting 2 20.0
2015-Jul-02 17:28 038 19.4
2015-Jul-02 17:23 039 0 gusting 2 19.4
2015-Jul-02 17:18 039 0 gusting 3 19.4
2015-Jul-02 17:13 039 1 gusting 3 18.9
2015-Jul-02 17:08 038 0 gusting 6 19.4
2015-Jul-02 17:03 039 0 gusting 6 20.6
2015-Jul-02 16:58 015 3 gusting 6 21.7
2015-Jul-02 16:53 009 3 gusting 6 21.7
2015-Jul-02 16:48 355 3 gusting 3 21.7
2015-Jul-02 16:43 345 2 gusting 3 21.7
2015-Jul-02 16:38 345 3 gusting 3 21.7
2015-Jul-02 16:33 355 3 gusting 3 21.1
2015-Jul-02 16:28 215 20.6
2015-Jul-02 16:23 194 20.0
2015-Jul-02 16:18 194 19.4
2015-Jul-02 16:13 194 18.9
2015-Jul-02 16:08 194 1 gusting 1 18.9
2015-Jul-02 16:03 193 0 gusting 0 18.9
2015-Jul-02 15:58 194 19.4
2015-Jul-02 15:53 194 19.4
2015-Jul-02 15:48 194 20.0
2015-Jul-02 15:43 193 0 gusting 1 20.0
2015-Jul-02 15:38 194 20.0
2015-Jul-02 15:33 194 20.0
2015-Jul-02 15:28 194 20.0
2015-Jul-02 15:23 194 20.0
2015-Jul-02 15:18 194 20.6
2015-Jul-02 15:13 194 20.0
2015-Jul-02 15:08 194 19.4
2015-Jul-02 15:03 194 18.9
2015-Jul-02 14:58 194 18.9
2015-Jul-02 14:53 194 18.3
2015-Jul-02 14:48 194 18.3
2015-Jul-02 14:43 194 17.8
2015-Jul-02 14:38 194 17.8
2015-Jul-02 14:33 194 0 gusting 0 17.2
2015-Jul-02 14:28 194 17.2
2015-Jul-02 14:23 194 0 gusting 5 17.2
2015-Jul-02 14:18 194 0 gusting 5 16.7
2015-Jul-02 14:13 194 2 gusting 5 16.7
2015-Jul-02 14:08 226 1 gusting 1 16.7
2015-Jul-02 14:03 226 0 gusting 0 16.7
2015-Jul-02 13:58 226 16.1
2015-Jul-02 13:53 226 16.1
2015-Jul-02 13:48 226 16.1
2015-Jul-02 13:43 226 16.1
2015-Jul-02 13:38 226 0 gusting 0 15.6
2015-Jul-02 13:33 226 15.6
2015-Jul-02 13:28 226 15.0
2015-Jul-02 13:23 226 2 gusting 3 15.0
2015-Jul-02 13:18 226 1 gusting 2 15.0
2015-Jul-02 13:13 226 2 gusting 3 15.0
2015-Jul-02 13:08 226 2 gusting 3 15.0
2015-Jul-02 13:03 226 14.4
2015-Jul-02 12:58 226 14.4
2015-Jul-02 12:53 226 14.4
2015-Jul-02 12:48 226 1 gusting 3 14.4
2015-Jul-02 12:43 226 14.4
2015-Jul-02 12:38 231 1 gusting 6 13.9
2015-Jul-02 12:33 218 1 gusting 5 13.9
2015-Jul-02 12:28 205 3 gusting 5 13.9
2015-Jul-02 12:23 202 1 gusting 1 13.9
2015-Jul-02 12:18 202 13.9
2015-Jul-02 12:13 202 13.9
2015-Jul-02 12:08 202 13.9
2015-Jul-02 12:03 202 13.9
2015-Jul-02 11:58 202 13.9
2015-Jul-02 11:53 202 13.9
2015-Jul-02 11:48 202 13.9
2015-Jul-02 11:43 202 13.9
2015-Jul-02 11:38 202 13.9
2015-Jul-02 11:33 202 0 gusting 2 14.4
2015-Jul-02 11:28 202 1 gusting 2 14.4
2015-Jul-02 11:23 202 1 gusting 3 14.4
2015-Jul-02 11:18 202 2 gusting 3 14.4
2015-Jul-02 11:13 202 3 gusting 3 14.4
2015-Jul-02 11:08 202 3 gusting 5 14.4
2015-Jul-02 11:03 202 3 gusting 5 14.4
2015-Jul-02 10:58 198 3 gusting 5 14.4
2015-Jul-02 10:53 198 3 gusting 5 14.4
2015-Jul-02 10:48 198 1 gusting 2 14.4
2015-Jul-02 10:43 198 1 gusting 2 14.4
2015-Jul-02 10:38 198 14.4
2015-Jul-02 10:33 198 14.4
2015-Jul-02 10:28 198 14.4
2015-Jul-02 10:23 198 14.4
2015-Jul-02 10:18 198 0 gusting 2 14.4
2015-Jul-02 10:13 198 14.4
2015-Jul-02 10:08 198 1 gusting 2 14.4
2015-Jul-02 10:03 198 0 gusting 2 14.4
2015-Jul-02 09:58 198 1 gusting 2 14.4
2015-Jul-02 09:53 198 1 gusting 2 14.4
2015-Jul-02 09:48 198 1 gusting 3 14.4
2015-Jul-02 09:43 198 1 gusting 5 14.4
2015-Jul-02 09:38 198 2 gusting 5 14.4
2015-Jul-02 09:33 198 5 gusting 5 14.4
2015-Jul-02 09:28 197 5 gusting 5 14.4
2015-Jul-02 09:23 196 3 gusting 3 15.0
2015-Jul-02 09:18 196 3 gusting 3 15.0
2015-Jul-02 09:13 196 2 gusting 3 15.0
2015-Jul-02 09:08 196 2 gusting 3 15.0
2015-Jul-02 09:03 196 1 gusting 3 15.0
2015-Jul-02 08:58 196 2 gusting 3 15.0
2015-Jul-02 08:53 196 2 gusting 3 15.0
2015-Jul-02 08:48 196 3 gusting 5 15.0
2015-Jul-02 08:43 196 2 gusting 5 15.0
2015-Jul-02 08:38 195 3 gusting 5 15.0
2015-Jul-02 08:33 195 3 gusting 5 15.0
2015-Jul-02 08:28 194 5 gusting 5 15.0
2015-Jul-02 08:23 197 3 gusting 6 15.0
2015-Jul-02 08:18 196 3 gusting 6 15.0
2015-Jul-02 08:13 192 6 gusting 6 15.0
2015-Jul-02 08:08 189 5 gusting 6 15.0
2015-Jul-02 08:03 196 5 gusting 6 15.0
2015-Jul-02 07:58 192 5 gusting 6 15.0
2015-Jul-02 07:53 203 5 gusting 6 15.6
2015-Jul-02 07:48 213 6 gusting 6 15.6
2015-Jul-02 07:43 202 6 gusting 6 15.6
2015-Jul-02 07:38 199 5 gusting 6 15.6
2015-Jul-02 07:33 205 5 gusting 6 15.6
2015-Jul-02 07:28 214 6 gusting 6 15.6
2015-Jul-02 07:23 253 3 gusting 5 15.6
2015-Jul-02 07:18 019 3 gusting 5 15.6
2015-Jul-02 07:13 019 3 gusting 5 16.1
2015-Jul-02 07:08 019 5 gusting 5 16.1
2015-Jul-02 07:03 019 2 gusting 3 16.7
2015-Jul-02 06:58 018 3 gusting 3 16.7
2015-Jul-02 06:53 018 1 gusting 2 16.7
2015-Jul-02 06:48 019 0 gusting 2 17.2
2015-Jul-02 06:43 018 2 gusting 2 17.2
2015-Jul-02 06:38 018 1 gusting 1 17.8
2015-Jul-02 06:33 019 17.8
2015-Jul-02 06:28 019 18.3
2015-Jul-02 06:23 019 0 gusting 2 18.3
2015-Jul-02 06:18 018 0 gusting 2 18.3
2015-Jul-02 06:13 019 0 gusting 3 18.3
2015-Jul-02 06:08 019 1 gusting 3 17.8
2015-Jul-02 06:03 054 1 gusting 2 17.8
2015-Jul-02 05:58 053 2 gusting 2 17.8
2015-Jul-02 05:53 054 18.3
2015-Jul-02 05:48 054 18.3
2015-Jul-02 05:38 053 18.3
2015-Jul-02 05:33 054 1 gusting 2 18.3
2015-Jul-02 05:28 054 0 gusting 2 18.3
2015-Jul-02 05:23 054 0 gusting 5 18.3
2015-Jul-02 05:18 053 2 gusting 5 18.3
2015-Jul-02 05:13 019 0 gusting 3 18.3
2015-Jul-02 05:08 019 0 gusting 6 18.9
2015-Jul-02 05:03 018 2 gusting 6 18.9
2015-Jul-02 04:58 355 0 gusting 6 18.9
2015-Jul-02 04:53 013 2 gusting 6 18.9
2015-Jul-02 04:48 016 3 gusting 5 18.9
2015-Jul-02 04:43 015 1 gusting 6 18.9
2015-Jul-02 04:38 016 3 gusting 6 18.9
2015-Jul-02 04:33 015 3 gusting 6 19.4
2015-Jul-02 04:28 015 0 gusting 6 19.4
2015-Jul-02 04:23 344 2 gusting 6 19.4
2015-Jul-02 04:18 344 3 gusting 6 19.4
2015-Jul-02 04:13 355 3 gusting 7 20.0
2015-Jul-02 04:08 336 6 gusting 9 20.0
2015-Jul-02 04:03 325 6 gusting 9 20.0
2015-Jul-02 03:58 331 6 gusting 6 19.4
2015-Jul-02 03:53 051 1 gusting 8 18.9
2015-Jul-02 03:48 034 3 gusting 8 18.3
2015-Jul-02 03:43 051 17.8
2015-Jul-02 03:38 305 0 gusting 2 17.8
2015-Jul-02 03:33 330 1 gusting 5 17.8
2015-Jul-02 03:28 323 18.3
2015-Jul-02 03:23 345 1 gusting 6 18.3
2015-Jul-02 03:18 280 3 gusting 12 18.3
2015-Jul-02 03:13 349 2 gusting 13 18.3
2015-Jul-02 03:08 325 12 gusting 13 17.8
2015-Jul-02 03:03 287 0 gusting 10 17.8
2015-Jul-02 02:58 350 1 gusting 10 17.8
2015-Jul-02 02:53 315 6 gusting 7 18.3
2015-Jul-02 02:48 331 3 gusting 6 18.9
2015-Jul-02 02:43 313 1 gusting 6 18.9
2015-Jul-02 02:38 331 0 gusting 6 19.4
2015-Jul-02 02:33 342 3 gusting 8 19.4
2015-Jul-02 02:28 005 6 gusting 8 19.4
2015-Jul-02 02:23 349 5 gusting 7 19.4
2015-Jul-02 02:18 360 3 gusting 9 20.0
2015-Jul-02 02:13 360 3 gusting 10 20.6
2015-Jul-02 02:08 342 6 gusting 10 20.6
2015-Jul-02 02:03 323 6 gusting 10 21.1
2015-Jul-02 01:58 311 6 gusting 10 21.1
2015-Jul-02 01:53 329 7 gusting 9 21.1
2015-Jul-02 01:48 332 6 gusting 10 21.1
2015-Jul-02 01:43 327 3 gusting 11 21.1
2015-Jul-02 01:38 321 6 gusting 11 21.1
2015-Jul-02 01:33 319 6 gusting 11 21.1
2015-Jul-02 01:28 314 6 gusting 11 20.6
2015-Jul-02 01:23 323 10 gusting 11 20.6
2015-Jul-02 01:18 314 9 gusting 13 20.6
2015-Jul-02 01:13 344 7 gusting 13 20.6
2015-Jul-02 01:08 343 11 gusting 13 20.6
2015-Jul-02 01:03 325 11 gusting 12 20.6
2015-Jul-02 00:58 311 6 gusting 12 20.6
2015-Jul-02 00:53 321 5 gusting 12 20.6
2015-Jul-02 00:48 323 9 gusting 11 20.6
2015-Jul-02 00:43 342 8 gusting 9 20.6
2015-Jul-02 00:38 341 8 gusting 8 20.6
2015-Jul-02 00:33 355 6 gusting 8 20.6
2015-Jul-02 00:28 334 8 gusting 9 20.6
2015-Jul-02 00:23 348 7 gusting 9 20.6
2015-Jul-02 00:18 317 6 gusting 9 20.6
2015-Jul-02 00:13 337 6 gusting 10 20.6
2015-Jul-02 00:08 330 8 gusting 10 20.6
2015-Jul-02 00:03 346 6 gusting 12 20.0
2015-Jul-01 23:58 355 6 gusting 12 20.0
2015-Jul-01 23:53 329 6 gusting 13 20.0
2015-Jul-01 23:48 338 9 gusting 13 20.0
2015-Jul-01 23:43 350 11 gusting 12 20.0
2015-Jul-01 23:38 331 9 gusting 10 20.0
2015-Jul-01 23:33 009 5 gusting 7 20.0
2015-Jul-01 23:28 288 7 gusting 7 20.0
2015-Jul-01 23:23 321 3 gusting 8 20.0
2015-Jul-01 23:18 312 3 gusting 15 19.4
2015-Jul-01 23:13 300 5 gusting 15 19.4
2015-Jul-01 23:08 340 13 gusting 15 18.9
2015-Jul-01 23:03 355 13 gusting 14 18.9
2015-Jul-01 22:58 338 10 gusting 16 18.9
2015-Jul-01 22:53 341 13 gusting 16 18.9
2015-Jul-01 22:48 334 13 gusting 16 18.9
2015-Jul-01 22:43 343 14 gusting 16 18.9
2015-Jul-01 22:38 331 11 gusting 12 18.3
2015-Jul-01 22:33 315 3 gusting 10 18.3
2015-Jul-01 22:28 329 8 gusting 10 18.3
2015-Jul-01 22:23 350 6 gusting 10 18.3
2015-Jul-01 22:18 360 6 gusting 9 18.3
2015-Jul-01 22:13 340 7 gusting 10 18.3
2015-Jul-01 22:08 338 8 gusting 11 18.3
2015-Jul-01 22:03 360 8 gusting 11 18.3
2015-Jul-01 21:58 360 9 gusting 11 18.3
2015-Jul-01 21:53 355 10 gusting 14 18.3
2015-Jul-01 21:48 360 7 gusting 15 18.3
2015-Jul-01 21:43 360 13 gusting 15 18.3
2015-Jul-01 21:38 360 14 gusting 16 18.3
2015-Jul-01 21:33 005 12 gusting 16 18.3
2015-Jul-01 21:28 009 11 gusting 16 18.3
2015-Jul-01 21:23 010 13 gusting 14 18.3
2015-Jul-01 21:18 011 11 gusting 13 18.3
2015-Jul-01 21:13 360 10 gusting 13 18.3
2015-Jul-01 21:08 005 10 gusting 10 18.3
2015-Jul-01 21:03 360 6 gusting 10 18.3
2015-Jul-01 20:58 346 3 gusting 7 18.3
2015-Jul-01 20:53 333 6 gusting 6 18.3
2015-Jul-01 20:48 360 3 gusting 10 18.3
2015-Jul-01 20:43 012 3 gusting 10 18.3
2015-Jul-01 20:38 360 7 gusting 10 18.3
2015-Jul-01 20:33 020 7 gusting 11 18.3
2015-Jul-01 20:28 011 9 gusting 12 18.9
2015-Jul-01 20:23 013 8 gusting 12 18.9
2015-Jul-01 20:18 013 11 gusting 14 18.9
2015-Jul-01 20:13 019 12 gusting 14 18.9
2015-Jul-01 20:08 013 10 gusting 15 18.9
2015-Jul-01 20:03 017 12 gusting 15 18.9